TimeEDT,TemperatureF,Dew PointF,Humidity,Sea Level PressureIn,VisibilityMPH,Wind Direction,Wind SpeedMPH,Gust SpeedMPH,PrecipitationIn,Events,Conditions,WindDirDegrees,DateUTC
12:56 AM,61.0,57.9,90,30.18,10.0,ENE,4.6,-,N/A,,Clear,60,2013-07-13 04:56:00
1:56 AM,60.1,57.9,93,30.18,10.0,ENE,3.5,-,N/A,,Clear,60,2013-07-13 05:56:00
2:56 AM,60.1,57.0,90,30.17,10.0,ENE,3.5,-,N/A,,Clear,60,2013-07-13 06:56:00
3:56 AM,59.0,57.0,93,30.17,10.0,Calm,Calm,-,N/A,,Clear,0,2013-07-13 07:56:00
4:56 AM,59.0,57.0,93,30.18,10.0,Calm,Calm,-,N/A,,Clear,0,2013-07-13 08:56:00
5:56 AM,60.1,57.9,93,30.19,10.0,Calm,Calm,-,N/A,,Clear,0,2013-07-13 09:56:00
6:56 AM,63.0,60.1,90,30.20,10.0,Calm,Calm,-,N/A,,Clear,0,2013-07-13 10:56:00
7:56 AM,69.1,63.0,81,30.22,10.0,Calm,Calm,-,N/A,,Clear,0,2013-07-13 11:56:00
8:56 AM,75.9,64.0,67,30.23,10.0,Calm,Calm,-,N/A,,Clear,0,2013-07-13 12:56:00
9:56 AM,80.1,64.0,58,30.22,10.0,North,3.5,-,N/A,,Clear,10,2013-07-13 13:56:00
10:56 AM,81.0,62.1,52,30.22,10.0,Calm,Calm,-,N/A,,Clear,0,2013-07-13 14:56:00
11:56 AM,81.0,66.0,60,30.22,10.0,East,11.5,-,N/A,,Mostly Cloudy,90,2013-07-13 15:56:00
12:56 PM,79.0,64.9,62,30.22,10.0,East,11.5,16.1,N/A,,Overcast,90,2013-07-13 16:56:00
1:56 PM,79.0,66.0,64,30.22,10.0,SE,3.5,-,N/A,,Overcast,130,2013-07-13 17:56:00
2:56 PM,80.1,66.9,64,30.22,10.0,West,5.8,-,N/A,,Overcast,280,2013-07-13 18:56:00
3:56 PM,82.0,66.9,60,30.21,10.0,Calm,Calm,-,N/A,,Partly Cloudy,0,2013-07-13 19:56:00
4:56 PM,82.9,68.0,60,30.21,10.0,SW,5.8,-,N/A,,Overcast,220,2013-07-13 20:56:00
5:56 PM,82.0,68.0,62,30.21,10.0,West,4.6,-,N/A,,Partly Cloudy,260,2013-07-13 21:56:00
6:56 PM,81.0,68.0,65,30.21,10.0,West,5.8,-,N/A,,Overcast,280,2013-07-13 22:56:00
7:56 PM,80.1,68.0,67,30.22,10.0,Calm,Calm,-,N/A,,Overcast,0,2013-07-13 23:56:00
8:56 PM,75.9,69.1,79,30.22,10.0,Calm,Calm,-,N/A,,Mostly Cloudy,0,2013-07-14 00:56:00
9:56 PM,73.9,69.1,85,30.24,10.0,Calm,Calm,-,N/A,,Mostly Cloudy,0,2013-07-14 01:56:00
10:56 PM,73.0,69.1,87,30.24,10.0,Calm,Calm,-,N/A,,Overcast,0,2013-07-14 02:56:00
11:56 PM,71.1,68.0,90,30.25,10.0,Calm,Calm,-,N/A,,Overcast,0,2013-07-14 03:56:00